When you browse on this site, cookies collect data to enhance your experience and personalize the content and advertising you see.
Visit our Privacy Policy to learn more. By continuing to use the site, you agree to this use of cookies and data.
  • In Germany
  • List of Countries
  • For 7 days
  • Water Temperature
  • Weather Map
  • Weather Widgets
  • user-avatar
    Login

    Hourly Weather Sankt Polten

    Today, 18 August, Sunday

    Time Temperature Precipitation Wind Pressure Humidity
    00:00 +22°C° 0 mm 1 mps 735 mmHg 65%
    01:00 +21°C° 0 mm 2 mps 735 mmHg 68%
    02:00 +21°C° 0 mm 1 mps 735 mmHg 69%
    03:00 +21°C° 0 mm 1 mps 734 mmHg 71%
    04:00 +21°C° 0 mm 1 mps 734 mmHg 72%
    05:00 +21°C° 0 mm 1 mps 734 mmHg 71%
    06:00 +22°C° 0 mm 1 mps 734 mmHg 70%
    07:00 +24°C° 0 mm 1 mps 734 mmHg 67%
    08:00 +25°C° 0 mm 1 mps 734 mmHg 61%
    09:00 +27°C° 0 mm 1 mps 734 mmHg 55%
    10:00 +29°C° 0 mm 1 mps 734 mmHg 49%
    11:00 +31°C° 0 mm 1 mps 734 mmHg 44%
    12:00 +32°C° 0 mm 1 mps 734 mmHg 40%
    13:00 +35°C° 0 mm 2 mps 734 mmHg 36%
    14:00 +34°C° 0 mm 1 mps 734 mmHg 37%
    15:00 +33°C° 0 mm 1 mps 734 mmHg 38%
    16:00 +33°C° 0 mm 1 mps 733 mmHg 39%
    17:00 +31°C° 0 mm 1 mps 733 mmHg 46%
    18:00 +29°C° 0 mm 1 mps 733 mmHg 53%
    19:00 +26°C° 0 mm 1 mps 733 mmHg 60%
    20:00 +25°C° 0 mm 1 mps 733 mmHg 62%
    21:00 +24°C° 0 mm 1 mps 733 mmHg 64%
    22:00 +23°C° 0 mm 1 mps 733 mmHg 67%
    23:00 +23°C° 0 mm 1 mps 734 mmHg 69%

    Tomorrow, 19 August, Monday

    Time Temperature Precipitation Wind Pressure Humidity
    00:00 +22°C° 0 mm 1 mps 734 mmHg 71%
    01:00 +21°C° 0 mm 1 mps 734 mmHg 74%
    02:00 +20°C° 0 mm 2 mps 734 mmHg 77%
    03:00 +20°C° 0 mm 2 mps 734 mmHg 81%
    04:00 +20°C° 0 mm 3 mps 735 mmHg 84%
    05:00 +20°C° 0.1 mm 2 mps 735 mmHg 86%
    06:00 +20°C° 0.1 mm 2 mps 736 mmHg 88%
    07:00 +21°C° 0.1 mm 1 mps 736 mmHg 91%
    08:00 +22°C° 0 mm 1 mps 736 mmHg 85%
    09:00 +23°C° 0 mm 2 mps 737 mmHg 80%
    10:00 +24°C° 0 mm 2 mps 737 mmHg 74%
    11:00 +23°C° 0.2 mm 2 mps 737 mmHg 77%
    12:00 +23°C° 0.2 mm 1 mps 737 mmHg 80%
    13:00 +22°C° 0.2 mm 1 mps 738 mmHg 83%
    14:00 +24°C° 0 mm 1 mps 738 mmHg 75%
    15:00 +25°C° 0 mm 1 mps 738 mmHg 67%
    16:00 +27°C° 0 mm 1 mps 738 mmHg 59%
    17:00 +25°C° 0 mm 1 mps 738 mmHg 66%
    18:00 +23°C° 0 mm 1 mps 738 mmHg 74%
    19:00 +20°C° 0 mm 0 mps 738 mmHg 82%
    20:00 +20°C° 0 mm 0 mps 738 mmHg 82%
    21:00 +20°C° 0 mm 0 mps 738 mmHg 81%
    22:00 +21°C° 0 mm 1 mps 739 mmHg 81%
    23:00 +19°C° 0.6 mm 0 mps 739 mmHg 85%

    Day after tomorrow, 20 August, Tuesday

    Time Temperature Precipitation Wind Pressure Humidity
    00:00 +18°C° 0.6 mm 0 mps 739 mmHg 88%
    01:00 +18°C° 0.6 mm 0 mps 739 mmHg 91%
    02:00 +18°C° 0.2 mm 0 mps 738 mmHg 92%
    03:00 +19°C° 0.2 mm 1 mps 738 mmHg 93%
    04:00 +19°C° 0.2 mm 1 mps 738 mmHg 94%
    05:00 +20°C° 0 mm 1 mps 739 mmHg 93%
    06:00 +20°C° 0 mm 1 mps 739 mmHg 91%
    07:00 +21°C° 0 mm 1 mps 739 mmHg 89%
    08:00 +23°C° 0 mm 1 mps 739 mmHg 80%
    09:00 +25°C° 0 mm 2 mps 739 mmHg 71%
    10:00 +27°C° 0 mm 2 mps 739 mmHg 62%
    11:00 +28°C° 0 mm 2 mps 738 mmHg 58%
    12:00 +29°C° 0 mm 3 mps 738 mmHg 55%
    13:00 +30°C° 0 mm 3 mps 738 mmHg 52%
    14:00 +30°C° 0.1 mm 3 mps 737 mmHg 52%
    15:00 +30°C° 0.1 mm 3 mps 737 mmHg 53%
    16:00 +30°C° 0.1 mm 3 mps 736 mmHg 53%
    17:00 +28°C° 0.2 mm 2 mps 736 mmHg 61%
    18:00 +26°C° 0.2 mm 2 mps 736 mmHg 69%
    19:00 +25°C° 0.2 mm 1 mps 736 mmHg 77%
    20:00 +24°C° 0.5 mm 1 mps 737 mmHg 82%
    21:00 +23°C° 0.5 mm 2 mps 737 mmHg 87%
    22:00 +21°C° 0.5 mm 2 mps 738 mmHg 93%
    23:00 +20°C° 0.2 mm 2 mps 738 mmHg 93%

    21 August, Wednesday

    Time Temperature Precipitation Wind Pressure Humidity
    00:00 +19°C° 0.2 mm 3 mps 738 mmHg 94%
    01:00 +18°C° 0.2 mm 3 mps 739 mmHg 94%
    02:00 +18°C° 0.1 mm 3 mps 739 mmHg 94%
    03:00 +17°C° 0.1 mm 3 mps 740 mmHg 94%
    04:00 +17°C° 0.1 mm 2 mps 740 mmHg 94%
    05:00 +17°C° 0 mm 2 mps 741 mmHg 93%
    06:00 +17°C° 0 mm 2 mps 741 mmHg 92%
    07:00 +17°C° 0 mm 2 mps 741 mmHg 91%
    08:00 +18°C° 0 mm 2 mps 742 mmHg 84%
    09:00 +19°C° 0 mm 2 mps 742 mmHg 76%
    10:00 +21°C° 0 mm 2 mps 742 mmHg 69%
    11:00 +20°C° 0.4 mm 2 mps 742 mmHg 74%
    12:00 +20°C° 0.4 mm 2 mps 742 mmHg 78%
    13:00 +19°C° 0.4 mm 2 mps 742 mmHg 82%
    14:00 +19°C° 0.3 mm 2 mps 742 mmHg 82%
    15:00 +20°C° 0.3 mm 1 mps 741 mmHg 82%
    16:00 +20°C° 0.3 mm 1 mps 741 mmHg 82%
    17:00 +20°C° 0 mm 1 mps 741 mmHg 85%
    18:00 +19°C° 0 mm 1 mps 741 mmHg 87%
    19:00 +16°C° 0 mm 0 mps 741 mmHg 89%
    20:00 +18°C° 0 mm 1 mps 741 mmHg 90%
    21:00 +18°C° 0 mm 1 mps 742 mmHg 90%
    22:00 +18°C° 0 mm 1 mps 742 mmHg 91%
    23:00 +18°C° 0 mm 1 mps 742 mmHg 91%

    22 August, Thursday

    Time Temperature Precipitation Wind Pressure Humidity
    00:00 +18°C° 0 mm 1 mps 742 mmHg 92%
    01:00 +16°C° 0 mm 1 mps 742 mmHg 92%
    02:00 +16°C° 0 mm 1 mps 741 mmHg 93%
    03:00 +15°C° 0 mm 1 mps 741 mmHg 94%
    04:00 +15°C° 0 mm 1 mps 741 mmHg 96%
    05:00 +15°C° 0 mm 1 mps 741 mmHg 92%
    06:00 +16°C° 0 mm 1 mps 741 mmHg 89%
    07:00 +18°C° 0 mm 1 mps 741 mmHg 86%
    08:00 +19°C° 0 mm 1 mps 741 mmHg 80%
    09:00 +20°C° 0 mm 1 mps 741 mmHg 73%
    10:00 +20°C° 0 mm 2 mps 742 mmHg 67%
    11:00 +21°C° 0 mm 2 mps 741 mmHg 64%
    12:00 +23°C° 0 mm 2 mps 741 mmHg 61%
    13:00 +24°C° 0 mm 2 mps 741 mmHg 57%
    14:00 +24°C° 0 mm 2 mps 741 mmHg 58%
    15:00 +24°C° 0 mm 2 mps 741 mmHg 58%
    16:00 +24°C° 0 mm 2 mps 741 mmHg 58%
    17:00 +23°C° 0 mm 2 mps 741 mmHg 65%
    18:00 +21°C° 0 mm 1 mps 741 mmHg 72%
    19:00 +19°C° 0 mm 1 mps 741 mmHg 79%
    20:00 +19°C° 0 mm 1 mps 741 mmHg 81%
    21:00 +18°C° 0 mm 1 mps 742 mmHg 82%
    22:00 +18°C° 0 mm 1 mps 742 mmHg 83%
    23:00 +16°C° 0 mm 1 mps 742 mmHg 85%

    23 August, Friday

    Time Temperature Precipitation Wind Pressure Humidity
    00:00 +16°C° 0 mm 1 mps 742 mmHg 87%
    01:00 +15°C° 0 mm 1 mps 742 mmHg 89%
    02:00 +15°C° 0 mm 1 mps 742 mmHg 90%
    03:00 +14°C° 0 mm 1 mps 741 mmHg 91%
    04:00 +14°C° 0 mm 1 mps 741 mmHg 92%
    05:00 +15°C° 0 mm 1 mps 742 mmHg 88%
    06:00 +16°C° 0 mm 1 mps 742 mmHg 84%
    07:00 +18°C° 0 mm 1 mps 742 mmHg 80%
    08:00 +20°C° 0 mm 1 mps 742 mmHg 73%
    09:00 +20°C° 0 mm 2 mps 742 mmHg 66%
    10:00 +22°C° 0 mm 3 mps 742 mmHg 59%
    11:00 +24°C° 0 mm 3 mps 741 mmHg 56%
    12:00 +25°C° 0 mm 3 mps 741 mmHg 53%
    13:00 +26°C° 0 mm 3 mps 741 mmHg 49%
    14:00 +27°C° 0 mm 3 mps 741 mmHg 50%
    15:00 +27°C° 0 mm 3 mps 740 mmHg 51%
    16:00 +27°C° 0 mm 3 mps 740 mmHg 51%
    17:00 +25°C° 0 mm 3 mps 740 mmHg 58%
    18:00 +22°C° 0 mm 3 mps 740 mmHg 65%
    19:00 +20°C° 0 mm 2 mps 740 mmHg 72%
    20:00 +19°C° 0 mm 2 mps 740 mmHg 75%
    21:00 +19°C° 0 mm 2 mps 740 mmHg 77%
    22:00 +18°C° 0 mm 2 mps 741 mmHg 79%
    23:00 +17°C° 0 mm 2 mps 740 mmHg 81%
    Show more